User: anonymous   Login
Location: Campillo
(40.8621°N, 4.2488°W)
Time: 00:06:27
(UTC+00:00)
Language:

Cosmos 962 Rocket - Orbit

View from above orbital plane
View from above orbital plane
View from above satellite
View from above satellite

Ground track
Ground track

The orbit data is extracted from the following two-line orbital elements,

1 10461U 77107B   21217.61715678  .00000040  00000-0  24994-4 0  9994
2 10461  82.9516 332.0495 0032135 239.9995 131.7175 13.76842586198341
Epoch (UTC): 05 August 2021 14:48:42
Eccentricity: 0.0032135
inclination: 82.9516°
perigee height: 951 km
apogee height: 999 km
right ascension of ascending node: 332.0495°
argument of perigee: 239.9995°
revolutions per day: 13.76842586
mean anomaly at epoch: 131.7175°
orbit number at epoch: 19834

The dashed part of the orbit path shows where the satellite is in the earth's shadow,  

DLR